Weather History for St. George, AK

Change the Weather History Date:

Saturday, January 18, 2014

  Actual Average Record
Temperature  
Mean Temperature 28 °F -  
Max Temperature 30 °F 31 °F 41 °F (2008)
Min Temperature 26 °F 25 °F 10 °F (2004)
Degree Days  
Heating Degree Days 37    
Moisture  
Dew Point 23 °F    
Average Humidity 81    
Maximum Humidity 96    
Minimum Humidity 61    
Precipitation  
Precipitation 0.08 in - - ()
Sea Level Pressure  
Sea Level Pressure 28.91 in    
Wind  
Wind Speed 29 mph (SW)    
Max Wind Speed 34 mph    
Max Gust Speed 45 mph    
Visibility 3 miles    
Events Fog , Snow    
Averages and records for this station are not official NWS values.
T = Trace of Precipitation, MM = Missing Value Source: NWS Daily Summary

Daily Weather History Graph

Daily Weather History Graph

Search for Another Location

Airport:

Trip Planner

Search our weather history database for the weather conditions in past years. The results will help you decide how hot, cold, wet, or windy it might be!

Date:

Astronomy

Jan. 18, 2014 Rise Set
Actual Time 10:38 AM AKST 6:20 PM AKST
Civil Twilight 9:54 AM AKST 7:04 PM AKST
Nautical Twilight 9:06 AM AKST 7:52 PM AKST
Astronomical Twilight 8:21 AM AKST 8:37 PM AKST
Moon 9:57 PM AKST (1/18) 11:06 AM AKST (1/18)
Length of Visible Light 9h 10m
Length of Day
7h 41m
Waning Gibbous, 94% of the Moon is Illuminated
Jan 18
Waning Gibbous
Jan 23
Last Quarter
Jan 30
New
Feb 6
First Quarter
Feb 14
Full

Hourly Weather History & Observations

Time (AKST) Temp. Windchill Dew Point Humidity Pressure Visibility Wind Dir Wind Speed Gust Speed Precip Events Conditions
12:02 AM 26.1 °F 8.6 °F 19.9 °F 78% 28.50 in 2.0 mi WSW 34.5 mph 43.7 mph 0.00 in Snow Light Snow
12:13 AM 26.1 °F 8.8 °F 19.9 °F 78% 28.51 in 1.8 mi West 33.4 mph 44.9 mph 0.00 in Snow Light Snow
12:23 AM 26.1 °F 8.6 °F 19.0 °F 75% 28.51 in 2.5 mi WSW 34.5 mph 42.6 mph 0.00 in Snow Light Snow
12:42 AM 26.1 °F 8.8 °F 19.9 °F 78% 28.53 in 3.0 mi West 33.4 mph 40.3 mph 0.00 in Snow Light Snow
12:53 AM 26.1 °F 9.1 °F 21.0 °F 81% 28.50 in 3.0 mi WSW 32.2 mph 41.4 mph 0.00 in Snow Light Snow
1:05 AM 26.1 °F - 21.0 °F 81% 28.53 in 1.8 mi North - - 0.00 in Snow Light Snow
1:53 AM 27.0 °F - 19.0 °F 72% 28.51 in 1.8 mi North - - 0.00 in Snow Light Snow
2:36 AM 27.0 °F - 19.0 °F 72% 28.55 in 2.0 mi North - - 0.00 in Snow Light Snow
2:43 AM 26.1 °F - 21.0 °F 81% 28.55 in 1.2 mi North - - 0.00 in Snow Light Snow
3:12 AM 27.0 °F - 19.9 °F 75% 28.56 in 1.8 mi North - - 0.00 in Snow Light Snow
3:53 AM 27.0 °F - 21.9 °F 81% 28.57 in 2.5 mi North - - 0.01 in Snow Light Snow
3:59 AM 26.1 °F - 21.0 °F 81% 28.59 in 1.0 mi North - - 0.00 in Snow Light Snow
4:07 AM 26.1 °F - 21.0 °F 81% 28.60 in 0.8 mi North - - 0.00 in Snow Light Snow
4:10 AM 26.1 °F - 21.0 °F 81% 28.60 in 1.2 mi North - - 0.00 in Snow Light Snow
4:22 AM 26.1 °F - 21.9 °F 84% 28.60 in 0.8 mi North - - 0.00 in Snow Light Snow
4:26 AM 26.1 °F - 21.9 °F 84% 28.61 in 1.0 mi North - - 0.00 in Snow Light Snow
4:36 AM 26.1 °F - 21.0 °F 81% 28.61 in 1.2 mi North - - 0.00 in Snow Light Snow
4:49 AM 26.6 °F - 21.2 °F 80% 28.62 in 0.8 mi North - - 0.01 in Snow Light Snow
4:53 AM 26.1 °F - 21.9 °F 84% 28.59 in 0.8 mi North - - 0.01 in Snow Light Snow
5:00 AM 27.0 °F - 23.0 °F 85% 28.62 in 1.0 mi North - - 0.00 in Snow Light Snow
5:08 AM 27.0 °F - 21.9 °F 81% 28.64 in 1.8 mi North - - 0.00 in Snow Light Snow
5:33 AM 27.0 °F - 21.9 °F 81% 28.64 in 1.0 mi North - - 0.00 in Snow Light Snow
5:44 AM 27.0 °F - 21.0 °F 78% 28.64 in 1.2 mi North - - 0.01 in Snow Light Snow
5:53 AM 28.0 °F - 21.9 °F 78% 28.61 in 1.8 mi North - - 0.01 in Snow Light Snow
6:06 AM 28.0 °F - 23.0 °F 81% 28.66 in 2.5 mi North - - 0.00 in Snow Light Snow
6:28 AM 27.0 °F - 23.0 °F 85% 28.67 in 1.2 mi North - - 0.00 in Snow Light Snow
6:35 AM 27.0 °F - 23.0 °F 85% 28.68 in 1.8 mi North - - 0.00 in Snow Light Snow
6:53 AM 26.1 °F - 23.0 °F 88% 28.65 in 1.2 mi North - - 0.00 in Snow Light Snow
7:23 AM 27.0 °F - 23.0 °F 85% 28.70 in 1.0 mi North - - 0.00 in Snow Light Snow
7:32 AM 27.0 °F - 23.0 °F 85% 28.70 in 1.5 mi North - - 0.00 in Snow Light Snow
7:53 AM 28.0 °F - 21.0 °F 75% 28.68 in 2.0 mi North - - 0.01 in Snow Light Snow
8:04 AM 28.0 °F - 19.9 °F 72% 28.72 in 1.8 mi North - - 0.00 in Snow Light Snow
8:14 AM 28.0 °F - 21.0 °F 75% 28.72 in 2.0 mi North - - 0.00 in Snow Light Snow
8:53 AM 28.0 °F - 21.0 °F 75% 28.72 in 2.5 mi North - - 0.00 in Snow Light Snow
9:13 AM 28.0 °F - 21.0 °F 75% 28.76 in 3.0 mi North - - 0.00 in Snow Light Snow
9:20 AM 28.0 °F - 21.0 °F 75% 28.76 in 2.0 mi North - - 0.00 in Snow Light Snow
9:38 AM 28.0 °F - 21.9 °F 78% 28.79 in 3.0 mi North - - 0.00 in Snow Light Snow
9:53 AM 28.0 °F - 21.9 °F 78% 28.76 in 2.5 mi North - - 0.00 in Snow Light Snow
10:08 AM 28.9 °F - 21.0 °F 72% 28.80 in 4.0 mi North - - 0.00 in Snow Light Snow
10:20 AM 28.0 °F - 21.9 °F 78% 28.81 in 1.8 mi North - - 0.00 in Snow Light Snow
10:23 AM 28.0 °F - 23.0 °F 81% 28.82 in 1.0 mi North - - 0.00 in Snow Light Snow
10:30 AM 26.1 °F - 23.0 °F 88% 28.83 in 0.8 mi North - - 0.00 in Snow Light Snow
10:39 AM 27.0 °F - 24.1 °F 89% 28.84 in 1.0 mi North - - 0.00 in Snow Light Snow
10:46 AM 28.0 °F - 24.1 °F 85% 28.84 in 2.0 mi North - - 0.00 in Snow Light Snow
10:53 AM 28.0 °F - 24.1 °F 85% 28.82 in 2.5 mi North - - 0.00 in Snow Light Snow
11:03 AM 28.0 °F - 23.0 °F 81% 28.85 in 1.2 mi North - - 0.00 in Snow Light Snow
11:07 AM 28.0 °F - 21.9 °F 78% 28.86 in 1.0 mi North - - 0.00 in Snow Light Snow
11:14 AM 28.0 °F - 23.0 °F 81% 28.86 in 2.5 mi North - - 0.00 in Snow Light Snow
11:22 AM 28.0 °F - 24.1 °F 85% 28.87 in 1.0 mi North - - 0.00 in Snow Light Snow
11:32 AM 28.0 °F - 23.0 °F 81% 28.87 in 2.0 mi North - - 0.00 in Snow Light Snow
11:45 AM 28.9 °F - 21.9 °F 75% 28.88 in 1.0 mi North - - 0.01 in Snow Light Snow
11:53 AM 27.0 °F - 21.9 °F 81% 28.86 in 0.5 mi North - - 0.01 in Snow Snow
11:57 AM 28.0 °F - 21.9 °F 78% 28.90 in 1.5 mi North - - 0.00 in Snow Light Snow
12:00 PM 28.9 °F - 21.9 °F 75% 28.89 in 3.0 mi North - - 0.00 in Snow Light Snow
12:07 PM 28.9 °F - 21.9 °F 75% 28.91 in 1.8 mi North - - 0.00 in Snow Light Snow
12:45 PM 30.0 °F - 21.0 °F 69% 28.93 in 3.0 mi North - - 0.00 in Snow Light Snow
12:53 PM 28.9 °F - 21.0 °F 72% 28.90 in 2.5 mi North - - 0.00 in Snow Light Snow
1:03 PM 28.9 °F - 21.9 °F 75% 28.93 in 1.8 mi North - - 0.00 in Snow Light Snow
1:06 PM 28.9 °F - 21.9 °F 75% 28.94 in 0.8 mi North - - 0.00 in Snow Light Snow
1:18 PM 28.0 °F - 24.1 °F 85% 28.95 in 1.2 mi North - - 0.00 in Snow Light Snow
1:26 PM 28.9 °F - 23.0 °F 78% 28.95 in 0.5 mi North - - 0.00 in Snow Snow
1:38 PM 28.0 °F - 24.1 °F 85% 28.97 in 1.5 mi North - - 0.01 in Snow Light Snow
1:45 PM 28.9 °F - 23.0 °F 78% 28.97 in 2.0 mi North - - 0.01 in Snow Light Snow
1:53 PM 28.0 °F - 24.1 °F 85% 28.95 in 1.5 mi North - - 0.01 in Snow Light Snow
2:03 PM 30.0 °F - 25.0 °F 82% 28.97 in 2.5 mi North - - 0.00 in Snow Light Snow
2:07 PM 28.9 °F - 24.1 °F 82% 28.99 in 1.5 mi North - - 0.00 in Snow Light Snow
2:18 PM 27.0 °F - 24.1 °F 89% 28.99 in 0.8 mi North - - 0.00 in Snow Light Snow
2:48 PM 28.4 °F - 24.8 °F 86% 29.00 in 1.2 mi North - - 0.00 in Snow Light Snow
2:53 PM 28.0 °F - 24.1 °F 85% 28.97 in 1.0 mi North - - 0.00 in Snow Light Snow
3:04 PM 28.9 °F - 25.0 °F 85% 29.01 in 1.2 mi North - - 0.00 in Snow Light Snow
3:11 PM 28.9 °F - 23.0 °F 78% 29.01 in 1.0 mi North - - 0.00 in Snow Light Snow
3:16 PM 28.9 °F - 21.0 °F 72% 29.02 in 2.0 mi North - - 0.00 in Snow Light Snow
3:25 PM 30.0 °F - 21.0 °F 69% 29.03 in 9.0 mi North - - 0.01 in Snow Light Snow
3:53 PM 28.9 °F - 18.0 °F 64% 29.01 in 9.0 mi North - - 0.01 in Snow Light Snow
4:30 PM 28.9 °F - 21.0 °F 72% 29.05 in 0.8 mi North - - 0.00 in Snow Light Snow
4:37 PM 28.0 °F - 24.1 °F 85% 29.07 in 0.2 mi North - - 0.00 in Fog , Snow Snow
4:43 PM 28.0 °F - 24.1 °F 85% 29.08 in 2.5 mi North - - 0.00 in   Mostly Cloudy
4:50 PM 30.2 °F - 24.8 °F 80% 29.08 in 10.0 mi North - - 0.00 in   Mostly Cloudy
4:53 PM 30.0 °F - 23.0 °F 75% 29.04 in 8.0 mi North - - 0.00 in Snow Light Snow
5:53 PM 30.9 °F - 19.0 °F 61% 29.08 in 9.0 mi North - - 0.00 in Snow Light Snow
6:41 PM 30.0 °F - 25.0 °F 82% 29.15 in 1.5 mi North - - 0.00 in Snow Light Snow
6:44 PM 28.0 °F - 25.0 °F 88% 29.15 in 0.8 mi North - - 0.00 in Snow Light Snow
6:53 PM 28.0 °F - 25.0 °F 88% 29.13 in 0.5 mi North - - 0.00 in Fog , Snow Snow
7:02 PM 27.0 °F - 26.1 °F 96% 29.17 in 0.5 mi North - - 0.00 in Fog , Snow Snow
7:07 PM 28.0 °F - 26.1 °F 92% 29.16 in 1.2 mi North - - 0.00 in Snow Light Snow
7:13 PM 28.0 °F - 27.0 °F 96% 29.16 in 0.8 mi North - - 0.00 in Snow Light Snow
7:15 PM 28.0 °F - 26.1 °F 92% 29.17 in 1.0 mi North - - 0.00 in Snow Light Snow
7:21 PM 28.0 °F - 27.0 °F 96% 29.17 in 2.5 mi North - - 0.00 in Snow Light Snow
7:25 PM 28.9 °F - 27.0 °F 92% 29.16 in 8.0 mi North - - 0.00 in   Mostly Cloudy
7:38 PM 28.9 °F - 26.1 °F 89% 29.17 in 1.5 mi North - - 0.01 in Snow Light Snow
7:41 PM 27.0 °F - 25.0 °F 92% 29.18 in 0.8 mi North - - 0.01 in Snow Light Snow
7:48 PM 28.4 °F - 26.6 °F 93% 29.18 in 1.2 mi North - - 0.01 in Snow Light Snow
7:51 PM 28.4 °F - 26.6 °F 93% 29.18 in 4.0 mi North - - 0.01 in Snow Light Snow
7:53 PM 28.0 °F - 26.1 °F 92% 29.15 in 6.0 mi North - - 0.01 in   Mostly Cloudy
8:03 PM 28.9 °F - 25.0 °F 85% 29.19 in 2.0 mi North - - 0.00 in Snow Light Snow
8:09 PM 28.9 °F - 26.1 °F 89% 29.18 in 1.0 mi North - - 0.00 in Snow Light Snow
8:17 PM 28.0 °F - 26.1 °F 92% 29.19 in 0.8 mi North - - 0.00 in Snow Light Snow
8:20 PM 28.0 °F - 26.1 °F 92% 29.19 in 1.0 mi North - - 0.00 in Snow Light Snow
8:25 PM 28.0 °F 13.9 °F 26.1 °F 92% 29.20 in 2.0 mi SW 23.0 mph 31.1 mph 0.00 in Snow Light Snow
8:32 PM 30.0 °F 15.4 °F 26.1 °F 85% 29.20 in 8.0 mi WSW 27.6 mph 34.5 mph 0.00 in Snow Light Snow
8:37 PM 28.0 °F 12.5 °F 25.0 °F 88% 29.20 in 1.8 mi SW 28.8 mph 40.3 mph 0.00 in Snow Light Snow
8:46 PM 28.9 °F 14.5 °F 25.0 °F 85% 29.21 in 3.0 mi SW 25.3 mph 38.0 mph 0.00 in Snow Light Snow
8:53 PM 28.9 °F 14.3 °F 25.0 °F 85% 29.18 in 6.0 mi SW 26.5 mph - 0.00 in Snow Light Snow
9:03 PM 30.0 °F 16.0 °F 24.1 °F 79% 29.22 in 10.0 mi SW 25.3 mph 35.7 mph 0.00 in   Mostly Cloudy
9:53 PM 30.0 °F 16.0 °F 21.0 °F 69% 29.21 in 10.0 mi SSW 25.3 mph 34.5 mph 0.00 in   Overcast
10:14 PM 28.9 °F 13.0 °F 23.0 °F 78% 29.26 in 2.5 mi SW 32.2 mph 39.1 mph 0.00 in Snow Light Snow
10:22 PM 28.0 °F 15.3 °F 23.0 °F 81% 29.27 in 1.5 mi SW 18.4 mph 39.1 mph 0.00 in Snow Light Snow
10:26 PM 28.9 °F 16.5 °F 24.1 °F 82% 29.27 in 3.0 mi SSW 18.4 mph - 0.00 in Snow Light Snow
10:34 PM 30.0 °F 16.9 °F 25.0 °F 82% 29.28 in 9.0 mi SW 21.9 mph 29.9 mph 0.00 in   Overcast
10:53 PM 30.9 °F 17.8 °F 23.0 °F 72% 29.25 in 10.0 mi SW 23.0 mph 28.8 mph 0.00 in   Overcast
11:08 PM 28.9 °F 16.9 °F 25.0 °F 85% 29.29 in 2.5 mi SW 17.3 mph - 0.00 in Snow Light Snow
11:10 PM 28.9 °F 17.3 °F 25.0 °F 85% 29.30 in 3.0 mi SW 16.1 mph - 0.00 in Snow Light Snow
11:26 PM 30.0 °F 16.3 °F 21.9 °F 72% 29.29 in 10.0 mi SW 24.2 mph 29.9 mph 0.00 in   Scattered Clouds
11:53 PM 30.9 °F 16.9 °F 19.0 °F 61% 29.27 in 10.0 mi SW 26.5 mph - 0.00 in Snow Light Snow